Weather History for Ann Arbor, MI

Change the Weather History Date:

Monday, October 25, 2010

  Actual Average Record
Temperature  
Mean Temperature 65 °F -  
Max Temperature 72 °F 56 °F 75 °F (2012)
Min Temperature 59 °F 35 °F 25 °F (1999)
Growing Degree Days 15 (Base 50)    
Moisture  
Dew Point 56 °F    
Average Humidity 77    
Maximum Humidity 90    
Minimum Humidity 63    
Precipitation  
Precipitation 0.00 in - - ()
Sea Level Pressure  
Sea Level Pressure 29.63 in    
Wind  
Wind Speed 7 mph (SSW)    
Max Wind Speed 15 mph    
Max Gust Speed 18 mph    
Visibility 10 miles    
Events      
Averages and records for this station are not official NWS values.
T = Trace of Precipitation, MM = Missing Value Source: NWS Daily Summary

Daily Weather History Graph

Daily Weather History Graph

Search for Another Location

Airport:

Trip Planner

Search our weather history database for the weather conditions in past years. The results will help you decide how hot, cold, wet, or windy it might be!

Date:

Astronomy

Oct. 25, 2010 Rise Set
Actual Time 7:59 AM EDT 6:37 PM EDT
Civil Twilight 7:30 AM EDT 7:06 PM EDT
Nautical Twilight 6:57 AM EDT 7:39 PM EDT
Astronomical Twilight 6:25 AM EDT 8:11 PM EDT
Moon 8:00 PM EDT (10/25) 10:45 AM EDT (10/25)
Length of Visible Light 11h 35m
Length of Day
10h 38m
Waning Gibbous, 93% of the Moon is Illuminated
Oct 25
Waning Gibbous
Oct 30
Last Quarter
Nov 6
New
Nov 13
First Quarter
Nov 21
Full

Hourly Weather History & Observations

Time (EDT) Temp. Dew Point Humidity Pressure Visibility Wind Dir Wind Speed Gust Speed Precip Events Conditions
12:53 AM 59.0 °F 55.9 °F 90% 29.71 in 8.0 mi Calm Calm - N/A   Scattered Clouds
1:53 AM 60.1 °F 55.0 °F 83% 29.69 in 10.0 mi SSW 4.6 mph - N/A   Partly Cloudy
2:53 AM 61.0 °F 54.0 °F 78% 29.69 in 10.0 mi SSW 8.1 mph - N/A   Mostly Cloudy
3:53 AM 62.1 °F 55.0 °F 78% 29.67 in 10.0 mi SSW 6.9 mph - N/A   Overcast
4:20 AM 62.6 °F 55.4 °F 77% 29.67 in 10.0 mi South 9.2 mph - N/A   Overcast
4:43 AM 62.6 °F 55.4 °F 77% 29.66 in 10.0 mi South 10.4 mph - N/A   Overcast
4:53 AM 62.1 °F 55.0 °F 78% 29.65 in 10.0 mi SSW 10.4 mph - N/A   Overcast
5:11 AM 60.8 °F 55.4 °F 82% 29.65 in 10.0 mi SSW 9.2 mph - N/A   Partly Cloudy
5:53 AM 62.1 °F 55.9 °F 80% 29.65 in 10.0 mi SSW 11.5 mph - N/A   Mostly Cloudy
6:53 AM 62.1 °F 55.9 °F 80% 29.64 in 10.0 mi SSW 6.9 mph - N/A   Overcast
7:53 AM 60.1 °F 54.0 °F 80% 29.64 in 10.0 mi South 6.9 mph - N/A   Mostly Cloudy
8:06 AM 59.0 °F 53.6 °F 82% 29.65 in 10.0 mi South 5.8 mph - N/A   Partly Cloudy
8:53 AM 60.1 °F 55.0 °F 83% 29.64 in 10.0 mi SSW 5.8 mph - N/A   Mostly Cloudy
9:22 AM 62.6 °F 55.4 °F 77% 29.64 in 10.0 mi SSW 9.2 mph - N/A   Mostly Cloudy
9:53 AM 62.1 °F 57.0 °F 84% 29.64 in 10.0 mi SSW 11.5 mph - N/A   Overcast
10:53 AM 64.0 °F 57.9 °F 80% 29.63 in 10.0 mi SSW 11.5 mph - N/A   Overcast
11:53 AM 64.9 °F 57.9 °F 78% 29.62 in 10.0 mi SW 11.5 mph 18.4 mph N/A   Overcast
12:53 PM 66.0 °F 57.9 °F 75% 29.63 in 10.0 mi SW 10.4 mph - N/A   Overcast
1:30 PM 68.0 °F 57.2 °F 68% 29.62 in 10.0 mi WSW 15.0 mph 18.4 mph N/A   Overcast
1:53 PM 69.1 °F 57.9 °F 68% 29.60 in 10.0 mi SW 11.5 mph - N/A   Overcast
2:39 PM 69.8 °F 57.2 °F 64% 29.60 in 10.0 mi SW 11.5 mph - N/A   Overcast
3:53 PM 71.1 °F 57.9 °F 63% 29.57 in 10.0 mi SW 11.5 mph 17.3 mph N/A   Mostly Cloudy
4:53 PM 70.0 °F 57.9 °F 65% 29.57 in 10.0 mi South 11.5 mph 17.3 mph N/A   Clear
5:53 PM 68.0 °F 57.9 °F 70% 29.57 in 10.0 mi South 6.9 mph - N/A   Scattered Clouds
6:53 PM 66.0 °F 57.0 °F 73% 29.59 in 10.0 mi South 8.1 mph - N/A   Partly Cloudy
7:53 PM 64.9 °F 57.0 °F 75% 29.60 in 10.0 mi South 9.2 mph - N/A   Scattered Clouds
8:53 PM 63.0 °F 57.0 °F 81% 29.60 in 10.0 mi South 9.2 mph - N/A   Clear
9:53 PM 61.0 °F 55.9 °F 83% 29.60 in 9.0 mi SSW 6.9 mph - N/A   Clear
10:53 PM 60.1 °F 55.9 °F 86% 29.61 in 9.0 mi South 4.6 mph - N/A   Clear
11:53 PM 60.1 °F 55.9 °F 86% 29.61 in 9.0 mi South 5.8 mph - N/A   Clear